Probability
0 0 0 0 0 0 0 0 0 0 0 0 0 0 0 0 0 0 0 0 0 0 0 0 0 0 0 0 0 0 0 0 0 0 0 0 0 0 0 0 0 0 0
0 0 0 0 0 0 0 0 0 0 0 0 0 0 0 0 0 0 0 0 0 0 0 0 0 0 0 0 0 0 0 0 0 0 0 0 0 0 0 0 0 0 0
0 0 0 0 0 0 0 0 0 0 0 0 0 0 0 0 0 0 0 0 0 0 0 0 0 0 0 0 0 0 0 0 0 0 0 0 0 0 0 0 0 0 0
0 0 0 0 0 0 0 0 0 0 0 0 0 0 0 0 0 0 0 0 0 0 0 0 0 0 0 0 0 0 0 0 0 0 0 0 0 0 0 0 0 0 0
0 0 0 0 0 0 0 0 0 0 0 0 0 0 0 0 0 0 0 0 0 0 0 0 0 0 0 0 0 0 0 0 0 0 0 0 0 0 0 0 0 0 0
0 0 0 0 0 0 0 0 0 0 0 0 0 0 0 0 0 0 0 0 0 0 0 0 0 0 0 0 0 0 0 0 0 0 0 0 0 0 0 0 0 0 0
0 0 0 0 0 0 0 0 0 0 0 0 0 0 0 0 0 0 0 0 0 0 0 0 0 0 0 0 0 0 0 0 0 0 0 0 0 0 0 0 0 0 0
0 0 0 0 0 0 0 0 0 0 0 0 0 0 0 0 0 0 0 0 0 0 0 0 0 0 0 0 0 0 0 0 0 0 0 0 0 0 0 0 0 0 0
0 0 0 0 0 0 0 0 0 0 0 0 0 0 0 0 0 0 0 0 0 0 0 0 0 0 0 0 0 0 0 0 0 0 0 0 0 0 0 0 0 0 0
0 0 0 0 0 0 0 0 0 0 0 0 0 0 0 0 0 0 0 0 0 0 0 0 0 0 0 0 0 0 0 0 0 0 0 0 0 0 0 0 0 0 0
0 0 0 0 0 0 0 0 0 0 0 0 0 0 0 0 0 0 0 0 0 0 0 0 0 0 0 0 0 0 0 0 0 0 0 0 0 0 0 0 0 0 0
0 0 0 0 0 0 0 0 0 0 0 0 0 0 0 0 0 0 0 0 0 0 0 0 0 0 0 0 0 0 0 0 0 0 0 0 0 0 0 0 0 0 0
0 0 0 0 0 0 0 0 0 0 0 0 0 0 0 0 0 0 0 0 0 0 0 0 0 0 0 0 0 0 0 0 0 0 0 0 0 0 0 0 0 0 0
0 0 0 0 0 0 0 0 0 0 0 0 0 0 0 0 0 0 0 0 0 0 0 0 0 0 0 0 0 0 0 0 0 0 0 0 0 0 0 0 0 0 0
0 0 0 0 0 0 0 0 0 0 0 0 0 0 0 0 0 0 0 0 0 0 0 0 0 0 0 0 0 0 0 0 0 0 0 0 0 0 0 0 0 0 0
0 0 0 0 0 0 0 0 0 0 0 0 0 0 0 0 0 0 0 0 0 0 0 0 0 0 0 0 0 0 0 0 0 0 0 0 0 0 0 0 0 0 0
0 0 0 0 0 0 0 0 0 0 0 0 0 0 0 0 0 0 0 0 0 0 0 0 0 0 0 0 0 0 0 0 0 0 0 0 0 0 0 0 0 0 0
0 0 0 0 0 0 0 0 0 0 0 0 0 0 0 0 0 0 0 0 0 0 0 0 0 0 0 0 0 0 0 0 0 0 0 0 0 0 0 0 0 0 0
0 0 0 0 0 0 0 0 0 0 0 0 0 0 0 0 0 0 0 0 0 0 0 0 0 0 0 0 0 0 0 0 0 0 0 0 0 0 0 0 0 0 0
0 0 0 0 0 0 0 0 0 0 0 0 0 0 0 0 0 0 0 0 0 0 0 0 0 0 0 0 0 0 0 0 0 0 0 0 0 0 0 0 0 0 0
0 0 0 0 0 0 0 0 0 0 0 0 0 0 0 0 0 0 0 0 0 0 0 0 0 0 0 0 0 0 0 0 0 0 0 0 0 0 0 0 0 0 0
0 0 0 0 0 0 0 0 0 0 0 0 0 0 0 0 0 0 0 0 0 0 0 0 0 0 0 0 0 0 0 0 0 0 0 0 0 0 0 0 0 0 0
0 0 0 0 0 0 0 0 0 0 0 0 0 0 0 0 0 0 0 0 0 0 0 0 0 0 0 0 0 0 0 0 0 0 0 0 0 0 0 0 0 0 0
0 0 0 0 0 0 0 0 0 0 0 0 0 0 0 0 0 0 0 0 0 0 0 0 0 0 0 0 0 0 0 0 0 0 0 0 0 0 0 0 0 0 0
0 0 0 0 0 0 0 0 0 0 0 0 0 0 0 0 0 0 0 0 0 0 0 0 0 0 0 0 0 0 0 0 0 0 0 0 0 0 0 0 0 0 0
0 0 0 0 0 0 0 0 0 0 0 0 0 0 0 0 0 0 0 0 0 0 0 0 0 0 0 0 0 0 0 0 0 0 0 0 0 0 0 0 0 0 0
Wind_Speed
5 4 3 3 3 2 2 2 1 1 1 1 1 0 0 1 0 0 1 2 1 2 5 6 7 7 8 8 9 10 10 10 10 11 11 11 11 12 12 12 12 12 12
6 5 4 4 3 3 3 3 2 2 1 0 1 1 1 1 1 0 0 0 0 1 3 4 6 7 8 9 9 10 10 10 10 11 11 11 12 12 12 12 12 13 13
7 6 5 4 4 4 3 2 2 1 0 0 1 2 1 1 1 1 1 0 0 1 2 3 5 6 8 9 9 10 10 10 10 11 11 11 12 12 12 13 13 13 13
9 7 5 5 4 3 3 3 2 1 1 0 0 1 2 2 1 1 1 1 1 1 2 3 4 6 7 8 9 10 10 10 10 11 11 12 12 13 13 13 14 14 14
9 7 5 5 5 3 3 3 2 2 1 0 1 1 2 2 1 1 1 2 2 2 1 2 4 5 7 8 9 10 10 10 11 11 12 12 12 13 13 14 14 15 15
9 7 5 5 5 4 3 3 2 2 1 1 0 2 2 2 1 1 1 1 1 2 1 1 2 3 6 7 9 10 10 11 11 11 12 12 13 13 14 14 15 15 16
9 8 6 6 5 5 5 5 3 2 1 1 2 2 3 3 2 1 1 1 2 1 2 2 1 1 2 6 8 9 10 11 11 11 12 13 13 14 14 15 15 16 17
10 8 8 6 6 5 5 4 4 3 1 1 2 2 2 3 3 2 2 1 1 1 2 1 1 1 1 1 4 8 9 11 11 12 12 13 14 15 15 16 16 17 17
10 9 9 7 7 6 6 5 5 5 3 1 2 4 3 2 2 3 2 1 1 1 1 2 2 2 1 1 2 5 8 10 12 13 13 14 15 16 16 17 17 17 18
10 10 9 9 8 6 6 6 5 4 5 3 1 1 2 3 2 2 3 2 2 1 2 2 2 2 2 1 2 6 8 10 12 14 14 15 16 17 17 18 18 18 18
9 10 10 9 8 6 7 6 5 5 4 4 3 2 2 1 2 2 3 3 3 3 2 3 2 2 2 1 2 5 9 11 13 14 15 16 17 18 18 19 19 19 19
6 9 9 8 8 7 7 7 6 6 4 4 3 3 3 3 3 3 3 3 3 3 3 2 2 1 1 1 3 8 10 12 14 15 16 16 17 18 19 19 20 20 20
5 9 8 8 7 7 7 7 6 6 6 5 4 3 3 3 3 3 3 2 2 3 3 2 2 1 1 1 3 8 9 13 15 15 16 16 17 18 19 19 20 20 21
8 9 9 8 8 8 8 7 5 5 5 5 5 4 3 3 3 3 4 3 1 3 3 4 2 2 2 1 4 7 5 13 15 15 16 17 18 18 19 19 20 20 21
7 10 9 9 9 9 8 8 5 5 5 5 5 5 3 3 3 3 3 4 4 3 4 4 3 3 2 2 6 3 4 11 15 16 17 18 18 19 19 20 20 20 21
9 11 10 9 9 8 8 7 6 5 6 5 4 5 4 3 3 3 3 3 4 4 4 4 4 4 4 4 8 4 5 14 15 17 18 18 19 19 20 20 20 21 21
10 12 11 10 10 9 8 7 6 7 7 5 4 5 5 4 3 3 3 3 4 4 6 5 4 3 4 5 6 5 5 5 6 16 19 19 20 20 20 20 21 22 22
11 11 10 10 10 9 9 9 8 7 7 7 6 5 5 4 4 4 3 4 4 5 5 7 5 3 5 5 5 6 6 6 5 14 19 20 20 20 21 21 22 22 22
10 10 10 10 10 9 8 8 8 7 7 7 6 6 6 5 5 4 4 5 4 4 4 5 6 4 4 4 5 5 6 5 7 11 16 17 19 21 22 22 22 23 23
11 10 10 9 9 8 8 7 7 6 6 5 5 6 6 6 6 6 5 5 5 5 5 5 6 5 4 4 3 5 5 4 6 7 11 13 17 20 21 22 23 23 23
10 9 9 8 7 7 7 8 7 6 6 5 5 5 6 8 10 7 5 5 5 4 4 5 6 5 4 4 4 4 6 5 5 6 6 7 8 7 9 15 19 21 23
8 8 8 8 8 6 11 13 9 6 6 6 6 5 5 7 10 12 13 12 9 6 5 5 5 6 7 6 5 5 5 6 6 3 4 6 5 7 7 6 16 22 22
8 8 7 7 7 7 11 12 11 6 6 6 6 5 5 5 8 5 9 13 12 15 14 8 6 7 6 6 5 6 6 7 7 4 4 7 4 7 6 9 19 21 21
7 7 7 7 6 6 10 10 9 5 4 5 6 6 6 6 6 6 6 6 7 7 9 7 6 7 7 7 7 7 8 7 6 4 4 6 4 5 7 6 16 18 18
6 5 6 6 6 5 8 8 7 3 3 5 5 5 6 6 11 13 7 6 7 7 10 15 15 14 17 17 13 6 4 5 7 4 3 4 4 5 5 6 8 14 16
5 6 5 5 5 4 6 7 6 3 4 4 4 5 9 10 12 13 7 5 7 7 6 7 8 10 9 10 15 7 4 6 6 5 3 3 3 4 5 3 3 5 8
Wind_Direction
175 178 184 186 187 183 191 201 214 236 261 274 268 233 328 346 356 220 277 264 279 339 352 359 1 0 2 3 5 7 4 360 357 355 352 349 346 344 341 336 334 333 330
175 177 180 185 191 190 192 189 192 204 226 261 346 13 7 350 349 12 162 321 322 0 13 15 10 11 9 8 8 7 3 359 356 351 347 344 342 340 336 334 331 328 325
175 176 177 185 194 188 180 170 174 154 143 70 17 358 355 341 348 28 94 94 15 51 54 30 19 15 14 9 6 5 1 358 354 349 345 342 340 336 332 330 327 325 323
177 175 177 189 187 173 165 162 157 132 115 82 348 329 337 333 337 11 88 103 93 64 41 39 27 18 7 2 2 359 356 353 350 347 345 342 338 334 331 328 325 323 320
179 174 180 185 172 164 164 164 145 143 152 200 277 315 332 325 324 49 95 106 115 115 77 26 25 10 1 358 357 352 350 349 348 347 344 341 338 335 332 329 327 324 321
180 175 176 177 165 158 160 155 142 125 136 170 352 356 344 340 26 64 79 81 94 101 93 62 30 3 1 357 354 350 348 347 346 344 344 341 338 335 332 330 327 325 322
180 176 173 168 166 167 171 161 142 133 108 90 68 7 349 4 38 29 38 68 63 70 82 69 56 18 348 359 354 352 347 343 342 343 341 339 337 333 331 329 327 325 322
180 179 173 172 169 160 160 160 147 137 125 113 123 91 4 346 353 8 20 64 49 41 43 27 14 354 337 345 340 350 346 341 339 338 337 336 334 331 330 328 327 324 322
180 176 175 170 169 166 170 172 162 153 156 137 126 141 149 222 303 330 351 10 0 14 359 339 336 326 317 323 318 332 340 337 334 334 334 333 330 328 327 326 324 323 321
179 176 173 171 170 168 168 172 167 158 147 156 142 119 147 155 160 303 319 327 336 333 317 320 319 315 322 322 320 326 332 331 330 330 330 329 327 326 325 324 323 321 319
179 176 173 171 170 170 169 164 159 159 153 158 162 150 129 102 131 163 270 306 319 295 282 285 288 302 321 325 311 318 329 329 327 327 326 326 325 324 322 322 321 319 316
177 177 173 172 170 168 168 167 164 162 160 156 158 157 158 161 177 174 216 261 284 286 287 285 272 274 302 320 321 331 330 328 325 323 323 322 322 320 319 319 318 316 314
179 183 173 173 171 169 166 160 159 162 162 161 167 174 174 179 165 164 178 228 268 292 304 297 257 251 271 310 312 326 327 324 321 320 320 319 318 317 316 315 315 314 313
181 176 174 173 169 165 163 161 158 166 163 167 174 173 175 188 176 173 173 173 250 294 291 276 284 249 253 285 298 319 315 317 315 317 317 316 314 313 312 312 312 311 310
170 171 171 170 168 167 166 162 165 170 166 174 178 181 184 195 189 188 179 170 177 239 274 267 268 263 262 278 290 284 283 302 312 312 312 312 311 311 311 310 309 308 307
170 170 172 170 169 169 167 164 165 170 170 179 180 184 197 201 198 193 192 192 186 196 243 253 245 253 273 281 291 291 278 304 307 308 309 309 309 309 308 307 307 306 306
172 174 173 171 172 173 170 169 175 174 179 188 189 195 210 202 203 206 199 199 205 196 240 264 248 257 261 264 279 278 272 272 281 301 305 306 306 306 306 306 305 305 306
175 174 171 171 175 176 175 176 180 183 186 193 199 200 216 209 215 216 211 218 221 214 226 264 270 258 252 254 259 269 277 278 269 293 301 303 304 304 304 304 305 305 305
171 170 171 174 177 177 178 181 182 186 193 198 198 204 214 210 227 228 225 230 234 237 227 249 270 257 256 254 264 270 271 274 277 288 298 300 301 303 303 304 305 305 305
171 173 175 176 175 174 177 178 179 186 195 204 206 209 213 212 225 230 233 235 237 244 245 252 266 266 258 256 255 270 282 265 273 282 286 290 296 300 301 304 305 305 304
171 169 168 169 169 172 180 178 181 187 194 207 218 221 223 228 234 237 238 236 231 240 248 255 266 271 268 268 261 260 278 281 270 263 269 278 286 283 289 296 301 300 300
163 163 169 171 175 185 191 192 186 188 196 207 223 233 238 243 252 260 266 268 260 252 249 249 260 264 269 260 260 263 275 288 288 255 257 276 272 275 278 276 292 299 302
160 165 171 172 182 191 193 198 198 188 200 212 220 230 243 247 259 257 271 279 278 276 274 270 262 261 267 260 263 271 265 267 274 273 272 280 268 274 277 287 298 300 303
164 168 172 176 179 194 197 200 202 197 209 221 224 227 236 250 253 260 253 259 260 266 273 272 254 258 257 258 250 261 269 273 265 262 252 275 275 269 282 281 292 297 304
161 166 169 169 175 192 199 204 203 191 217 236 239 236 237 245 265 276 273 267 272 271 279 280 279 282 286 292 294 289 283 287 291 278 233 249 273 284 278 270 280 296 308
157 155 159 167 175 188 207 216 214 190 221 242 248 248 253 259 269 278 270 263 273 274 269 278 282 288 288 288 293 285 267 275 284 286 245 246 274 299 296 267 268 286 298